Regional Weather Roundup
Issued by NWS

Home | Current Version | Previous Version | Text Only | Print | Product List | Glossary Off
Versions: 1 2 3 4 5 6 7 8 9 10 11 12 13 14 15 16 17 18 19 20 21 22 23 24 25 26 27 28 29 30 31 32 33 34 35 36 37 38 39 40 41 42 43 44 45 46 47 48 49 50

064
ASUS43 KLOT 100612
RWRIL

ILLINOIS REGIONAL WEATHER ROUNDUP
NATIONAL WEATHER SERVICE CHICAGO/ROMEOVILLE IL
1200 AM CST SAT DEC 10 2016

NOTE: "FAIR" INDICATES FEW OR NO CLOUDS BELOW 12,000 FEET WITH NO
SIGNIFICANT WEATHER AND/OR OBSTRUCTIONS TO VISIBILITY.

* THESE STATIONS ARE NOT UNDER NWS QUALITY CONTROL. THEY ALSO MAY NOT
  REPORT WEATHER SUCH AS PRECIPITATION OR FOG.

ILZ001-002-007-009-015-016-024-100700-
NORTHWEST ILLINOIS

CITY           SKY/WX    TMP DP  RH WIND       PRES   REMARKS
MOLINE         CLOUDY    20  14  77 W5        30.55R WCI  13
6HR MIN TEMP:  19; 6HR MAX TEMP:  21;

STERLING*      MOCLDY    19  14  81 W6        30.54S WCI  11
SAVANNA*       CLOUDY    19  13  78 W5        30.53S WCI  12
$$

ILZ003-004-008-010-011-017-018-100700-
NORTH CENTRAL ILLINOIS

CITY           SKY/WX    TMP DP  RH WIND       PRES   REMARKS
ROCKFORD       CLOUDY    17  11  77 W7        30.53R WCI   8
6HR MIN TEMP:  15; 6HR MAX TEMP:  20;

FREEPORT*      CLOUDY    17  12  81 W6        30.51F WCI   8
ROCHELLE*      CLOUDY    17  13  85 W7        30.52S WCI   7
DE KALB*       CLOUDY    17  12  81 W8        30.51S WCI   7
$$

ILZ005-006-012>014-019>023-100700-
NORTHEAST ILLINOIS

CITY           SKY/WX    TMP DP  RH WIND       PRES   REMARKS
CHICAGO-OHARE  MOCLDY    18  12  77 W7        30.50S WCI   9
6HR MIN TEMP:  18; 6HR MAX TEMP:  21;

CHICAGO-MIDWAY CLOUDY    21  12  68 W9        30.52S WCI  11
6HR MIN TEMP:  20; 6HR MAX TEMP:  23;

AURORA         CLOUDY    16  12  84 W3        30.52S
6HR MIN TEMP:  12; 6HR MAX TEMP:  17;

LANSING*       MOCLDY    19  15  86 W7        30.52S WCI  10
JOLIET*        CLOUDY    21  15  76 W5        30.54S WCI  15
WAUKEGAN       PTCLDY    19  12  74 VRB6      30.48S WCI  11
6HR MIN TEMP:  17; 6HR MAX TEMP:  21;

DUPAGE AIRPORT CLOUDY    17  10  74 W7        30.50S WCI   8
6HR MIN TEMP:  16; 6HR MAX TEMP:  20;

KANKAKEE*      CLOUDY    23  16  74 CALM      30.54S
WHEELING       CLOUDY    19  12  74 W6        30.52S WCI  11
6HR MIN TEMP:  19; 6HR MAX TEMP:  22;

MORRIS*        CLOUDY    19  15  82 CALM      30.53S
ROMEOVILLE*    CLOUDY    19  16  90 W7        30.53R WCI  10
NORTHERLY ISL    N/A     21  14  74 SW6         N/A  WCI  14
$$

LMZ740>746-100700-
SOUTHERN LAKE MICHIGAN

STATION/POSITION SKY/WX   TEMP    WIND        PRES    VSBY  WAVE
                          AIR SEA DIR/SP/G                  HT/PER
                          (F)     (DEG/KT/KT) (MB)    (MI)  (FT/S)
BURNHAM HARBOR             21     270/  5/ 11   N/A
CALUMET HARBOR                    230/  5/  8 1032.4F
BURNS HARBOR               22     220/  9/ 13 1033.5S
$$

ILZ025>027-034>036-040-047-049-050-058-095>099-100700-
WEST-CENTRAL ILLINOIS

CITY           SKY/WX    TMP DP  RH WIND       PRES   REMARKS
QUINCY         CLOUDY    22  16  78 S5        30.55F WCI  16
GALESBURG*     CLOUDY    20  16  83 CALM      30.54S
MACOMB*        CLOUDY    22  16  80 SW3       30.57F
JACKSONVILLE*  CLOUDY    22  16  76 CALM      30.57S
PITTSFIELD*    CLOUDY    24  16  74 CALM      30.57S
$$

ILZ028>032-037-038-041>044-048-051>054-059>061-100700-
CENTRAL ILLINOIS

CITY           SKY/WX    TMP DP  RH WIND       PRES   REMARKS
PONTIAC        CLOUDY    24  16  71 W10       30.55S WCI  13
BLOOMINGTON    CLOUDY    21  15  78 W7        30.53F WCI  12
DECATUR        CLOUDY    22  13  68 W5        30.55F WCI  16
PEORIA         CLOUDY    22  14  71 W7        30.56S WCI  13
6HR MIN TEMP:  21; 6HR MAX TEMP:  23;

LACON*         MOCLDY    21  13  70 W3        30.54F
LINCOLN*       CLOUDY    23  15  71 W3        30.56S
SPRINGFIELD    CLOUDY    24  17  74 W3        30.56F
6HR MIN TEMP:  24; 6HR MAX TEMP:  25;

TAYLORVILLE    CLOUDY    22  17  79 CALM      30.56F
6HR MIN TEMP:  21; 6HR MAX TEMP:  23;

$$

ILZ033-039-045-046-055>057-062-063-100700-
EAST-CENTRAL ILLINOIS

CITY           SKY/WX    TMP DP  RH WIND       PRES   REMARKS
CHAMPAIGN      CLOUDY    22  14  71 W7        30.54F WCI  13
RANTOUL*       CLOUDY    23  18  80 W7        30.54S WCI  15
MATTOON        CLOUDY    23  14  68 W6        30.55S WCI  16
PARIS*         CLOUDY    22  17  83 W5        30.56F WCI  15
$$

ILZ079-100>102-100700-
SOUTHWEST ILLINOIS

CITY           SKY/WX    TMP DP  RH WIND       PRES   REMARKS
ALTON          CLOUDY    21  19  89 CALM      30.57F
BELLEVILLE     PTCLDY    20  18  91 CALM      30.57F
CAHOKIA*       CLOUDY    23  16  74 CALM      30.59F
SPARTA*        MOCLDY    19  17  89 CALM      30.60S
$$

ILZ064>066-069>071-074>076-080>082-084>086-088>090-092>094-100700-
SOUTH-CENTRAL ILLINOIS

CITY           SKY/WX    TMP DP  RH WIND       PRES   REMARKS
CARBONDALE     CLEAR     17  15  92 CALM      30.60F
6HR MIN TEMP:  16; 6HR MAX TEMP:  25;

CAIRO*         CLEAR     18  16  94 CALM      30.61S
EFFINGHAM*     CLOUDY    23  19  85 SW3       30.59F
MARION         CLEAR     19  16  86 CALM      30.60F
CENTRALIA*     PTCLDY    20  19  93 CALM      30.58S
SALEM*         CLOUDY    22  18  84 CALM      30.58F
METROPOLIS*    CLEAR     19  16  87 CALM      30.62S
$$

ILZ067-068-072-073-078-083-087-091-100700-
SOUTHEAST ILLINOIS

CITY           SKY/WX    TMP DP  RH WIND       PRES   REMARKS
LAWRENCEVILLE  CLOUDY    24  18  77 W5        30.59F WCI  18
FLORA*         CLOUDY    23  19  85 CALM      30.59F
FAIRFIELD*     CLOUDY    21  18  87 CALM      30.58F
HARRISBURG*    CLEAR     19  17  89 CALM      30.61F
ROBINSON*      CLOUDY    23  17  77 W6        30.59S WCI  16
CARMI*         MOCLDY    20  19  93 CALM      30.59F
$$

ABBREVIATIONS USED IN REMARKS
   TC - TEMPERATURE IN CELSIUS
  WCI - WIND CHILL INDEX
   HX - HEAT INDEX
  VSB - VISIBILITY
$$





USA.gov is the U.S. government's official web portal to all federal, state and local government web resources and services.